GW6505 Weather Reports


Display with metric or nautical units.
time (UTC)temp
F
wind
direction
speed
MPH
gust
MPH
rain 1hr
in
rain 24hr
in
rain mn
in
humidity
%
barometer
mb
20260510103142 49 87 0.0 1.0 0.00 0.00 0.00 98 1020.4
20260510102139 49 64 0.0 0.0 0.00 0.00 0.00 98 1020.3
20260510101135 49 62 0.0 0.0 0.00 0.00 0.00 98 1020.4
20260510100133 49 62 0.0 0.0 0.00 0.00 0.00 98 1020.3
20260510095130 49 65 0.0 0.0 0.00 0.00 0.00 98 1020.1
20260510094130 49 63 0.0 0.0 0.00 0.00 0.00 98 1020.2
20260510093129 49 57 0.0 1.0 0.00 0.00 0.00 98 1020.2
20260510092127 49 63 0.0 0.0 0.00 0.00 0.00 98 1019.6
20260510091125 49 80 0.0 0.0 0.00 0.00 0.00 98 1019.9
20260510090124 49 75 0.0 1.0 0.00 0.00 0.00 98 1019.7
20260510085120 49 83 0.0 1.0 0.00 0.00 0.00 98 1019.4
20260510084120 49 144 2.0 2.0 0.00 0.00 0.00 98 1019.8
20260510083119 49 77 0.0 0.0 0.00 0.00 0.00 98 1020.0
20260510082117 49 64 0.0 0.0 0.00 0.00 0.00 98 1019.8
20260510081113 49 62 0.0 1.0 0.00 0.00 0.00 97 1019.9
20260510080110 50 78 0.0 1.0 0.00 0.00 0.00 98 1020.2
20260510075110 50 334 1.0 2.0 0.00 0.00 0.00 98 1020.3
20260510074108 50 63 0.0 0.0 0.00 0.00 0.00 98 1020.4
20260510073108 50 43 0.0 0.0 0.00 0.00 0.00 98 1020.3
20260510072106 50 103 0.0 2.0 0.00 0.00 0.00 98 1020.5
20260510071106 50 75 0.0 1.0 0.00 0.00 0.00 98 1020.6
20260510070106 50 74 0.0 1.0 0.00 0.00 0.00 98 1020.7
20260510065104 50 69 0.0 1.0 0.00 0.00 0.00 98 1020.5
20260510064103 50 101 1.0 1.0 0.00 0.00 0.00 98 1020.6
20260510063103 50 72 0.0 0.0 0.00 0.00 0.00 98 1020.3
20260510062100 50 72 0.0 1.0 0.00 0.00 0.00 98 1020.3
20260510061100 50 65 0.0 0.0 0.00 0.00 0.00 98 1019.9
20260510060058 50 76 0.0 0.0 0.00 0.00 0.00 98 1020.1
20260510055058 50 72 0.0 0.0 0.00 0.00 0.00 98 1020.1
20260510054055 50 74 0.0 0.0 0.00 0.00 0.00 98 1020.1
20260510053052 50 84 0.0 0.0 0.00 0.00 0.00 98 1020.2
20260510052050 50 63 0.0 0.0 0.00 0.00 0.00 98 1020.1
20260510051048 50 75 0.0 0.0 0.00 0.00 0.00 98 1020.0
20260510050048 50 89 0.0 2.0 0.00 0.00 0.00 98 1019.9
20260510045047 49 86 0.0 0.0 0.00 0.00 0.00 98 1020.1
20260510044042 49 86 0.0 0.0 0.00 0.00 0.00 98 1019.8
20260510043039 49 78 0.0 0.0 0.00 0.00 0.00 98 1019.8
20260510042033 49 77 0.0 0.0 0.00 0.00 0.00 98 1019.8
20260510041028 49 78 0.0 0.0 0.00 0.00 0.00 98 1019.8
20260510040026 49 66 0.0 1.0 0.00 0.39 0.39 98 1019.5
20260510035022 48 66 0.0 0.0 0.00 0.39 0.39 97 1019.8
20260510034017 49 66 0.0 0.0 0.00 0.39 0.39 97 1019.7
20260510033018 49 66 0.0 0.0 0.00 0.39 0.39 97 1019.6
20260510032014 49 66 0.0 0.0 0.00 0.39 0.39 97 1019.6
20260510031011 49 65 0.0 0.0 0.00 0.39 0.39 97 1019.8
20260510030010 49 64 0.0 0.0 0.00 0.39 0.39 97 1019.9
20260510025005 50 64 0.0 0.0 0.00 0.39 0.39 97 1019.7
20260510024003 50 64 0.0 0.0 0.00 0.39 0.39 97 1019.9
20260510023003 50 64 0.0 0.0 0.00 0.39 0.39 97 1020.0
20260510022001 50 64 0.0 0.0 0.00 0.39 0.39 97 1019.7
20260510021001 50 68 0.0 0.0 0.00 0.39 0.39 97 1019.7
20260510015958 50 67 0.0 0.0 0.00 0.39 0.39 96 1019.5
20260510014955 51 67 0.0 0.0 0.00 0.39 0.39 96 1019.5
20260510013955 51 65 0.0 0.0 0.00 0.39 0.39 96 1019.7
20260510012952 51 65 0.0 0.0 0.00 0.39 0.39 96 1019.8
20260510011948 52 65 0.0 0.0 0.00 0.39 0.39 96 1019.5
20260510010945 52 72 0.0 0.0 0.00 0.39 0.39 96 1019.4
20260510005945 52 72 0.0 0.0 0.00 0.39 0.39 96 1019.3
20260510004944 52 72 0.0 0.0 0.00 0.39 0.39 96 1019.2
20260510003939 52 72 0.0 0.0 0.00 0.39 0.39 96 1019.0
20260510002936 52 71 0.0 0.0 0.00 0.39 0.39 96 1019.0
20260510001935 52 81 0.0 0.0 0.00 0.39 0.39 95 1018.9
20260510000930 52 68 0.0 1.0 0.00 0.39 0.39 95 1018.7
20260509235928 52 69 0.0 0.0 0.00 0.39 0.39 94 1018.5
20260509234927 53 69 0.0 0.0 0.00 0.39 0.39 94 1018.4
20260509233923 53 70 0.0 0.0 0.00 0.39 0.39 93 1018.3
20260509232921 54 69 0.0 0.0 0.00 0.39 0.39 93 1018.3
20260509231921 54 68 0.0 0.0 0.00 0.39 0.39 93 1018.5
20260509230916 55 70 0.0 0.0 0.00 0.39 0.39 92 1018.6
20260509225914 55 65 0.0 1.0 0.00 0.39 0.39 92 1018.6
20260509224913 55 59 0.0 1.0 0.00 0.39 0.39 92 1018.5
20260509223911 56 90 1.0 2.0 0.00 0.39 0.39 91 1018.5
20260509222911 56 224 3.0 3.0 0.00 0.39 0.39 92 1018.3
20260509221907 56 87 0.0 2.0 0.00 0.39 0.39 93 1018.2
20260509220906 55 129 2.0 4.0 0.00 0.39 0.39 94 1018.4
20260509215904 55 96 0.0 1.0 0.00 0.39 0.39 94 1018.3
20260509214904 55 82 0.0 1.0 0.00 0.39 0.39 94 1018.7
20260509213858 55 125 1.0 1.0 0.00 0.39 0.39 93 1018.5
20260509212857 55 79 0.0 1.0 0.00 0.39 0.39 93 1018.8
20260509211856 55 86 1.0 2.0 0.00 0.39 0.39 93 1018.7
20260509210854 55 98 0.0 1.0 0.05 0.39 0.39 93 1018.7
20260509205851 55 80 0.0 1.0 0.00 0.38 0.38 94 1018.8
20260509204849 54 82 1.0 2.0 0.00 0.38 0.38 94 1019.0
20260509203847 54 94 0.0 1.0 0.00 0.38 0.38 95 1019.1
20260509202846 53 82 0.0 0.0 0.12 0.38 0.38 94 1019.0
20260509201843 53 208 2.0 2.0 0.07 0.36 0.36 94 1019.5
20260509200841 53 83 2.0 2.0 0.12 0.35 0.35 93 1019.4
20260509195839 53 139 2.0 3.0 0.12 0.33 0.33 93 1019.5
20260509194839 53 47 1.0 3.0 0.12 0.31 0.31 92 1019.7
20260509193838 53 95 1.0 3.0 0.12 0.29 0.29 92 1019.8
20260509192834 53 66 0.0 8.0 0.12 0.27 0.27 93 1020.0
20260509191831 54 108 1.0 3.0 0.07 0.25 0.25 94 1020.1
20260509190829 53 86 0.0 1.0 0.05 0.24 0.24 94 1020.1
20260509185824 53 85 1.0 2.0 0.12 0.23 0.23 94 1020.3
20260509184824 53 254 2.0 4.0 0.14 0.21 0.21 94 1020.6
20260509183823 53 124 1.0 2.0 0.05 0.19 0.19 94 1020.6
20260509182820 53 136 1.0 1.0 0.07 0.18 0.18 94 1020.3
20260509181820 53 126 1.0 2.0 0.00 0.16 0.16 94 1020.4
20260509180821 53 132 1.0 1.0 0.07 0.16 0.16 94 1020.3
20260509175819 53 82 0.0 0.0 0.05 0.15 0.15 94 1020.3
20260509174818 53 117 1.0 2.0 0.07 0.14 0.14 94 1020.1
20260509173815 53 59 0.0 0.0 0.05 0.13 0.13 94 1020.3
20260509172813 53 56 0.0 1.0 0.07 0.12 0.12 93 1020.2
20260509171812 53 67 0.0 0.0 0.05 0.11 0.11 93 1019.9
20260509170810 53 79 0.0 1.0 0.07 0.10 0.10 92 1020.0
20260509165806 53 77 0.0 0.0 0.00 0.09 0.09 93 1020.1
20260509164803 52 68 0.0 1.0 0.00 0.09 0.09 93 1020.3
20260509163801 52 94 0.0 1.0 0.05 0.09 0.09 94 1020.3
20260509162757 52 54 1.0 1.0 0.00 0.08 0.08 93 1020.4
20260509161753 52 51 1.0 1.0 0.07 0.08 0.08 92 1020.7
20260509160750 52 63 0.0 1.0 0.00 0.07 0.07 91 1020.8
20260509155748 52 74 0.0 0.0 0.07 0.07 0.07 91 1021.1
20260509154746 51 65 0.0 1.0 0.00 0.06 0.06 91 1021.3
20260509153747 52 58 0.0 0.0 0.05 0.06 0.06 91 1021.5
20260509152745 51 75 0.0 0.0 0.07 0.05 0.05 90 1021.5
20260509151745 51 71 0.0 0.0 0.00 0.04 0.04 90 1021.4
20260509150739 51 55 1.0 1.0 0.00 0.04 0.04 92 1021.3
20260509145734 50 50 0.0 2.0 0.00 0.04 0.04 91 1020.9
20260509144731 50 65 0.0 1.0 0.00 0.04 0.04 90 1020.9
20260509143730 50 44 1.0 1.0 0.00 0.04 0.04 91 1021.2
20260509142729 50 45 2.0 3.0 0.00 0.04 0.04 91 1021.5
20260509141727 50 8 2.0 3.0 0.00 0.04 0.04 90 1021.1
20260509140727 49 42 1.0 2.0 0.00 0.04 0.04 90 1021.4
20260509135722 49 92 0.0 1.0 0.00 0.04 0.04 91 1021.3
20260509134722 49 54 1.0 1.0 0.00 0.04 0.04 91 1021.5
20260509133717 48 57 0.0 1.0 0.00 0.04 0.04 90 1021.6
20260509132712 48 56 0.0 0.0 0.00 0.04 0.04 91 1021.5
20260509131712 48 75 0.0 0.0 0.00 0.04 0.04 91 1021.5
20260509130711 47 76 0.0 0.0 0.00 0.04 0.04 91 1021.8
20260509125709 47 72 0.0 0.0 0.00 0.04 0.04 92 1021.5
20260509124708 46 82 0.0 0.0 0.00 0.04 0.04 92 1021.4
20260509123704 46 57 0.0 1.0 0.00 0.04 0.04 92 1021.2
20260509122702 46 56 0.0 1.0 0.00 0.04 0.04 92 1021.2
20260509121701 46 56 0.0 0.0 0.00 0.04 0.04 92 1021.4
20260509120657 46 55 0.0 0.0 0.00 0.04 0.04 92 1021.6
20260509115652 46 75 0.0 0.0 0.00 0.03 0.03 92 1021.6
20260509114648 45 57 0.0 0.0 0.00 0.03 0.03 92 1021.9
20260509113644 45 63 0.0 0.0 0.00 0.03 0.03 92 1021.8
20260509112643 45 63 0.0 0.0 0.00 0.03 0.03 92 1021.7
20260509111638 44 63 0.0 0.0 0.00 0.03 0.03 92 1021.9
20260509110637 44 52 0.0 1.0 0.00 0.03 0.03 93 1021.9
20260509105632 44 58 0.0 0.0 0.00 0.03 0.03 93 1022.0
20260509104632 44 57 0.0 0.0 0.00 0.03 0.03 93 1021.7